When you browse on this site, cookies collect data to enhance your experience and personalize the content and advertising you see.
Visit our Privacy Policy to learn more. By continuing to use the site, you agree to this use of cookies and data.
  • In Deutschland
  • Länderverzeichnis
  • Für 7 Tage
  • Wassertemperatur
  • Satellitenkarten
  • Wetterkarte
  • Widgets
  • user-avatar
    Anmelden

    Stündliche Wetter Francistown

    Heute, 22 Januar, Dienstag

    Zeit Temperatur Niederschläge Wind Luftdruck Luftfeuchtigkeit
    00:00 +21°C° 0 mm 2 m/S 677 mmHg 47%
    01:00 +21°C° 0 mm 2 m/S 677 mmHg 49%
    02:00 +20°C° 0 mm 2 m/S 677 mmHg 53%
    03:00 +20°C° 0 mm 2 m/S 677 mmHg 58%
    04:00 +19°C° 0 mm 2 m/S 677 mmHg 64%
    05:00 +19°C° 0 mm 2 m/S 677 mmHg 70%
    06:00 +20°C° 0 mm 2 m/S 677 mmHg 67%
    07:00 +21°C° 0 mm 3 m/S 677 mmHg 64%
    08:00 +22°C° 0 mm 4 m/S 678 mmHg 60%
    09:00 +26°C° 0 mm 4 m/S 678 mmHg 50%
    10:00 +28°C° 0 mm 5 m/S 678 mmHg 39%
    11:00 +30°C° 0 mm 5 m/S 678 mmHg 28%
    12:00 +32°C° 0 mm 5 m/S 678 mmHg 27%
    13:00 +33°C° 0 mm 5 m/S 677 mmHg 26%
    14:00 +34°C° 0 mm 5 m/S 677 mmHg 25%
    15:00 +33°C° 0 mm 6 m/S 676 mmHg 30%
    16:00 +32°C° 0 mm 6 m/S 676 mmHg 34%
    17:00 +32°C° 0 mm 6 m/S 676 mmHg 38%
    18:00 +29°C° 0 mm 5 m/S 675 mmHg 47%
    19:00 +26°C° 0 mm 5 m/S 675 mmHg 56%
    20:00 +23°C° 0 mm 4 m/S 675 mmHg 65%
    21:00 +23°C° 0 mm 4 m/S 675 mmHg 65%
    22:00 +22°C° 0 mm 3 m/S 675 mmHg 66%
    23:00 +21°C° 0 mm 3 m/S 675 mmHg 66%

    Morgen, 23 Januar, Mittwoch

    Zeit Temperatur Niederschläge Wind Luftdruck Luftfeuchtigkeit
    00:00 +21°C° 0 mm 2 m/S 675 mmHg 65%
    01:00 +21°C° 0 mm 2 m/S 675 mmHg 64%
    02:00 +20°C° 0 mm 2 m/S 675 mmHg 63%
    03:00 +20°C° 0 mm 2 m/S 675 mmHg 65%
    04:00 +21°C° 0 mm 1 m/S 674 mmHg 67%
    05:00 +21°C° 0 mm 1 m/S 674 mmHg 69%
    06:00 +22°C° 0 mm 1 m/S 675 mmHg 64%
    07:00 +24°C° 0 mm 1 m/S 676 mmHg 59%
    08:00 +25°C° 0 mm 2 m/S 676 mmHg 53%
    09:00 +27°C° 0 mm 2 m/S 676 mmHg 47%
    10:00 +29°C° 0 mm 3 m/S 676 mmHg 41%
    11:00 +31°C° 0 mm 3 m/S 676 mmHg 35%
    12:00 +34°C° 0 mm 4 m/S 676 mmHg 32%
    13:00 +35°C° 0 mm 4 m/S 676 mmHg 28%
    14:00 +36°C° 0 mm 4 m/S 675 mmHg 25%
    15:00 +36°C° 0 mm 4 m/S 675 mmHg 25%
    16:00 +36°C° 0 mm 4 m/S 674 mmHg 24%
    17:00 +36°C° 0 mm 4 m/S 674 mmHg 24%
    18:00 +34°C° 0 mm 4 m/S 674 mmHg 27%
    19:00 +31°C° 0 mm 3 m/S 674 mmHg 31%
    20:00 +29°C° 0 mm 3 m/S 674 mmHg 35%
    21:00 +28°C° 0 mm 3 m/S 674 mmHg 36%
    22:00 +28°C° 0 mm 3 m/S 674 mmHg 37%
    23:00 +27°C° 0 mm 3 m/S 674 mmHg 39%

    übermorgen, 24 Januar, Donnerstag

    Zeit Temperatur Niederschläge Wind Luftdruck Luftfeuchtigkeit
    00:00 +26°C° 0 mm 3 m/S 674 mmHg 40%
    01:00 +26°C° 0 mm 3 m/S 674 mmHg 41%
    02:00 +25°C° 0 mm 3 m/S 673 mmHg 42%
    03:00 +25°C° 0 mm 2 m/S 673 mmHg 44%
    04:00 +24°C° 0 mm 2 m/S 674 mmHg 45%
    05:00 +24°C° 0 mm 1 m/S 674 mmHg 46%
    06:00 +25°C° 0 mm 1 m/S 674 mmHg 43%
    07:00 +26°C° 0 mm 1 m/S 675 mmHg 40%
    08:00 +28°C° 0 mm 1 m/S 676 mmHg 37%
    09:00 +30°C° 0 mm 1 m/S 676 mmHg 34%
    10:00 +31°C° 0 mm 2 m/S 677 mmHg 30%
    11:00 +34°C° 0 mm 2 m/S 677 mmHg 26%
    12:00 +35°C° 0 mm 3 m/S 677 mmHg 25%
    13:00 +36°C° 0 mm 4 m/S 676 mmHg 24%
    14:00 +37°C° 0 mm 4 m/S 676 mmHg 23%
    15:00 +37°C° 0 mm 5 m/S 675 mmHg 24%
    16:00 +37°C° 0 mm 5 m/S 675 mmHg 25%
    17:00 +36°C° 0 mm 5 m/S 674 mmHg 26%
    18:00 +34°C° 0 mm 5 m/S 675 mmHg 32%
    19:00 +32°C° 0 mm 5 m/S 675 mmHg 37%
    20:00 +30°C° 0 mm 6 m/S 675 mmHg 43%
    21:00 +29°C° 0 mm 6 m/S 676 mmHg 44%
    22:00 +28°C° 0 mm 6 m/S 676 mmHg 44%
    23:00 +28°C° 0 mm 6 m/S 676 mmHg 45%

    25 Januar, Freitag

    Zeit Temperatur Niederschläge Wind Luftdruck Luftfeuchtigkeit
    00:00 +27°C° 0 mm 5 m/S 676 mmHg 46%
    01:00 +26°C° 0 mm 4 m/S 676 mmHg 48%
    02:00 +25°C° 0 mm 4 m/S 675 mmHg 49%
    03:00 +25°C° 0 mm 4 m/S 675 mmHg 49%
    04:00 +23°C° 0 mm 4 m/S 675 mmHg 49%
    05:00 +23°C° 0 mm 4 m/S 675 mmHg 49%
    06:00 +23°C° 0 mm 4 m/S 676 mmHg 49%
    07:00 +25°C° 0 mm 4 m/S 677 mmHg 48%
    08:00 +26°C° 0 mm 5 m/S 678 mmHg 48%
    09:00 +28°C° 0 mm 5 m/S 678 mmHg 44%
    10:00 +30°C° 0 mm 5 m/S 679 mmHg 41%
    11:00 +33°C° 0 mm 5 m/S 679 mmHg 38%
    12:00 +34°C° 0 mm 5 m/S 678 mmHg 36%
    13:00 +35°C° 0 mm 5 m/S 678 mmHg 34%
    14:00 +36°C° 0 mm 4 m/S 677 mmHg 32%
    15:00 +35°C° 0 mm 5 m/S 677 mmHg 33%
    16:00 +35°C° 0 mm 5 m/S 676 mmHg 34%
    17:00 +34°C° 0 mm 5 m/S 675 mmHg 35%
    18:00 +33°C° 0 mm 5 m/S 675 mmHg 37%
    19:00 +30°C° 0 mm 4 m/S 676 mmHg 40%
    20:00 +29°C° 0 mm 4 m/S 676 mmHg 42%
    21:00 +28°C° 0 mm 4 m/S 676 mmHg 45%
    22:00 +27°C° 0 mm 4 m/S 676 mmHg 47%
    23:00 +26°C° 0 mm 3 m/S 676 mmHg 50%

    26 Januar, Samstag

    Zeit Temperatur Niederschläge Wind Luftdruck Luftfeuchtigkeit
    00:00 +26°C° 0 mm 3 m/S 676 mmHg 53%
    01:00 +25°C° 0 mm 3 m/S 676 mmHg 55%
    02:00 +24°C° 0 mm 3 m/S 676 mmHg 58%
    03:00 +24°C° 0 mm 3 m/S 676 mmHg 61%
    04:00 +22°C° 0 mm 4 m/S 676 mmHg 63%
    05:00 +22°C° 0 mm 5 m/S 676 mmHg 65%
    06:00 +23°C° 0 mm 5 m/S 677 mmHg 62%
    07:00 +26°C° 0 mm 5 m/S 677 mmHg 58%
    08:00 +27°C° 0 mm 5 m/S 678 mmHg 54%
    09:00 +29°C° 0 mm 4 m/S 678 mmHg 48%
    10:00 +33°C° 0 mm 3 m/S 679 mmHg 42%
    11:00 +34°C° 0 mm 1 m/S 679 mmHg 35%
    12:00 +35°C° 0 mm 1 m/S 678 mmHg 32%
    13:00 +36°C° 0 mm 1 m/S 678 mmHg 29%
    14:00 +39°C° 0 mm 1 m/S 677 mmHg 26%
    15:00 +37°C° 0 mm 1 m/S 677 mmHg 25%
    16:00 +38°C° 0 mm 2 m/S 676 mmHg 25%
    17:00 +38°C° 0 mm 2 m/S 676 mmHg 24%
    18:00 +36°C° 0 mm 3 m/S 676 mmHg 29%
    19:00 +35°C° 0 mm 4 m/S 675 mmHg 33%
    20:00 +33°C° 0 mm 6 m/S 675 mmHg 37%
    21:00 +32°C° 0 mm 6 m/S 676 mmHg 44%
    22:00 +29°C° 0 mm 6 m/S 676 mmHg 51%
    23:00 +28°C° 0 mm 6 m/S 676 mmHg 57%

    27 Januar, Sonntag

    Zeit Temperatur Niederschläge Wind Luftdruck Luftfeuchtigkeit
    00:00 +27°C° 1.6 mm 6 m/S 676 mmHg 65%
    01:00 +24°C° 1.6 mm 6 m/S 676 mmHg 72%
    02:00 +23°C° 1.6 mm 6 m/S 676 mmHg 80%
    03:00 +22°C° 1.3 mm 6 m/S 676 mmHg 81%
    04:00 +22°C° 1.3 mm 7 m/S 677 mmHg 81%
    05:00 +22°C° 1.3 mm 7 m/S 677 mmHg 82%
    06:00 +22°C° 0 mm 7 m/S 677 mmHg 80%
    07:00 +23°C° 0 mm 7 m/S 678 mmHg 79%
    08:00 +23°C° 0 mm 7 m/S 678 mmHg 77%
    09:00 +24°C° 0 mm 7 m/S 678 mmHg 71%
    10:00 +27°C° 0 mm 6 m/S 678 mmHg 64%
    11:00 +29°C° 0 mm 6 m/S 679 mmHg 58%
    12:00 +30°C° 0 mm 5 m/S 678 mmHg 52%
    13:00 +33°C° 0 mm 4 m/S 678 mmHg 45%
    14:00 +34°C° 0 mm 3 m/S 677 mmHg 39%
    15:00 +34°C° 0 mm 4 m/S 677 mmHg 40%
    16:00 +34°C° 0 mm 5 m/S 677 mmHg 40%
    17:00 +34°C° 0 mm 6 m/S 676 mmHg 41%
    18:00 +32°C° 0.1 mm 7 m/S 676 mmHg 49%
    19:00 +28°C° 0.1 mm 7 m/S 676 mmHg 58%
    20:00 +26°C° 0.1 mm 7 m/S 676 mmHg 67%
    21:00 +24°C° 0 mm 7 m/S 677 mmHg 68%
    22:00 +24°C° 0 mm 7 m/S 677 mmHg 70%
    23:00 +23°C° 0 mm 7 m/S 677 mmHg 72%
    Mehr zeigen